TimeEDT,TemperatureF,Dew PointF,Humidity,Sea Level PressureIn,VisibilityMPH,Wind Direction,Wind SpeedMPH,Gust SpeedMPH,PrecipitationIn,Events,Conditions,WindDirDegrees,DateUTC
12:53 AM,37.0,35.1,93,30.09,6.0,Calm,Calm,-,N/A,,Clear,0,2013-10-21 04:53:00
1:53 AM,36.0,34.0,93,30.10,6.0,Calm,Calm,-,N/A,,Clear,0,2013-10-21 05:53:00
2:53 AM,36.0,34.0,93,30.11,5.0,Calm,Calm,-,N/A,,Clear,0,2013-10-21 06:53:00
3:53 AM,35.1,33.1,92,30.12,6.0,Calm,Calm,-,N/A,,Clear,0,2013-10-21 07:53:00
4:53 AM,35.1,33.1,92,30.12,5.0,Calm,Calm,-,N/A,,Scattered Clouds,0,2013-10-21 08:53:00
5:03 AM,35.6,33.8,93,30.11,5.0,Calm,Calm,-,N/A,,Mostly Cloudy,0,2013-10-21 09:03:00
5:25 AM,35.6,33.8,93,30.11,1.8,Calm,Calm,-,N/A,,Overcast,0,2013-10-21 09:25:00
5:31 AM,35.6,35.6,100,30.11,0.8,Calm,Calm,-,N/A,,Mist,0,2013-10-21 09:31:00
5:53 AM,37.0,35.1,93,30.12,0.2,Calm,Calm,-,N/A,Fog,Fog,0,2013-10-21 09:53:00
6:53 AM,37.0,36.0,96,30.14,0.2,Calm,Calm,-,N/A,Fog,Fog,0,2013-10-21 10:53:00
7:53 AM,37.0,36.0,96,30.14,0.2,Calm,Calm,-,N/A,Fog,Fog,0,2013-10-21 11:53:00
8:53 AM,39.0,37.9,96,30.15,0.2,Calm,Calm,-,N/A,Fog,Fog,0,2013-10-21 12:53:00
9:53 AM,41.0,41.0,100,30.14,0.2,Calm,Calm,-,N/A,Fog,Fog,0,2013-10-21 13:53:00
10:37 AM,44.6,42.8,93,30.12,1.2,Calm,Calm,-,N/A,,Partly Cloudy,0,2013-10-21 14:37:00
10:43 AM,46.4,42.8,87,30.12,3.0,Calm,Calm,-,N/A,,Partly Cloudy,0,2013-10-21 14:43:00
10:53 AM,48.9,43.0,80,30.12,7.0,Calm,Calm,-,N/A,,Clear,0,2013-10-21 14:53:00
11:53 AM,59.0,42.1,53,30.09,10.0,Variable,3.5,-,N/A,,Clear,0,2013-10-21 15:53:00
12:53 PM,64.0,39.0,40,30.05,10.0,Variable,5.8,-,N/A,,Clear,0,2013-10-21 16:53:00
1:53 PM,64.0,37.9,38,30.03,10.0,South,10.4,18.4,N/A,,Clear,190,2013-10-21 17:53:00
2:53 PM,64.9,37.9,37,30.00,10.0,South,9.2,17.3,N/A,,Clear,190,2013-10-21 18:53:00
3:53 PM,66.0,39.9,38,29.98,10.0,Variable,5.8,-,N/A,,Clear,0,2013-10-21 19:53:00
4:53 PM,64.0,39.0,40,29.96,10.0,South,9.2,-,N/A,,Clear,190,2013-10-21 20:53:00
5:53 PM,62.1,37.9,41,29.96,10.0,South,5.8,-,N/A,,Clear,180,2013-10-21 21:53:00
6:53 PM,54.0,39.9,59,29.97,10.0,South,3.5,-,0.00,,Clear,170,2013-10-21 22:53:00
7:53 PM,54.0,39.9,59,29.97,10.0,South,5.8,-,N/A,,Clear,180,2013-10-21 23:53:00
8:53 PM,55.0,39.9,57,29.96,10.0,South,6.9,-,N/A,,Clear,180,2013-10-22 00:53:00
9:53 PM,55.0,41.0,59,29.95,10.0,South,5.8,-,N/A,,Clear,190,2013-10-22 01:53:00
10:53 PM,53.1,41.0,64,29.93,10.0,South,4.6,-,N/A,,Clear,190,2013-10-22 02:53:00
11:53 PM,48.9,41.0,74,29.93,10.0,SSW,3.5,-,N/A,,Clear,200,2013-10-22 03:53:00